Weather History for Pasco, WA

Change the Weather History Date:

Wednesday, March 26, 2014

  Actual Average Record
Temperature  
Mean Temperature 54 °F 49 °F  
Max Temperature 63 °F 62 °F 71 °F (1997)
Min Temperature 45 °F 36 °F 26 °F (1995)
Degree Days  
Heating Degree Days 11 16  
Month to date heating degree days 488 503  
Since 1 July heating degree days 4717 4386  
Cooling Degree Days 0 0  
Month to date cooling degree days 0 0  
Year to date cooling degree days 0 0  
Growing Degree Days 3 (Base 50)    
Moisture  
Dew Point 37 °F    
Average Humidity 54    
Maximum Humidity 71    
Minimum Humidity 36    
Precipitation  
Precipitation 0.03 in 0.03 in 0.55 in (1971)
Month to date precipitation 0.45 0.66  
Year to date precipitation 1.43 2.74  
Snow  
Snow 0.00 in - - ()
Snow Depth 0.00 in    
Sea Level Pressure  
Sea Level Pressure 29.59 in    
Wind  
Wind Speed 11 mph (SSW)    
Max Wind Speed 30 mph    
Max Gust Speed 37 mph    
Visibility 10 miles    
Events Rain    
T = Trace of Precipitation, MM = Missing Value Source: NWS Daily Summary

Daily Weather History Graph

Daily Weather History Graph

Search for Another Location

Airport:

Trip Planner

Search our weather history database for the weather conditions in past years. The results will help you decide how hot, cold, wet, or windy it might be!

Date:

Astronomy

Mar. 26, 2014 Rise Set
Actual Time 6:47 AM PDT 7:17 PM PDT
Civil Twilight 6:17 AM PDT 7:47 PM PDT
Nautical Twilight 5:41 AM PDT 8:23 PM PDT
Astronomical Twilight 5:05 AM PDT 9:00 PM PDT
Moon 4:14 AM PDT (3/26) 2:48 PM PDT (3/26)
Length of Visible Light 13h 29m
Length of Day
12h 29m
Waning Crescent, 21% of the Moon is Illuminated
Mar 26
Waning Crescent
Mar 30
New
Apr 7
First Quarter
Apr 15
Full
Apr 22
Last Quarter

Hourly Weather History & Observations

Time (PDT) Temp. Windchill Dew Point Humidity Pressure Visibility Wind Dir Wind Speed Gust Speed Precip Events Conditions
12:53 AM 48.0 °F - 35.1 °F 61% 29.63 in 10.0 mi SW 17.3 mph - N/A   Clear
1:53 AM 48.0 °F - 36.0 °F 63% 29.63 in 10.0 mi SW 18.4 mph - N/A   Clear
2:53 AM 48.0 °F - 36.0 °F 63% 29.63 in 10.0 mi SW 13.8 mph - N/A   Clear
3:53 AM 48.9 °F - 35.1 °F 59% 29.64 in 10.0 mi SW 15.0 mph - N/A   Partly Cloudy
4:53 AM 46.0 °F - 36.0 °F 68% 29.63 in 10.0 mi Calm Calm - N/A   Clear
5:53 AM 48.0 °F - 36.0 °F 63% 29.63 in 10.0 mi SSW 5.8 mph - N/A   Clear
6:53 AM 45.0 °F 39.7 °F 36.0 °F 71% 29.62 in 10.0 mi South 10.4 mph - N/A   Clear
7:53 AM 46.0 °F 43.9 °F 37.0 °F 71% 29.63 in 10.0 mi NE 4.6 mph - N/A   Clear
8:53 AM 48.0 °F - 37.9 °F 68% 29.62 in 10.0 mi ESE 5.8 mph - N/A   Clear
9:53 AM 51.1 °F - 37.9 °F 61% 29.62 in 10.0 mi SSE 5.8 mph - N/A   Mostly Cloudy
10:53 AM 54.0 °F - 36.0 °F 51% 29.62 in 10.0 mi Calm Calm - N/A   Mostly Cloudy
11:53 AM 55.9 °F - 35.1 °F 45% 29.61 in 10.0 mi South 4.6 mph - N/A   Overcast
12:53 PM 57.9 °F - 34.0 °F 41% 29.58 in 10.0 mi WSW 10.4 mph - N/A   Scattered Clouds
1:53 PM 60.1 °F - 34.0 °F 38% 29.56 in 10.0 mi SW 8.1 mph - N/A   Mostly Cloudy
2:53 PM 60.1 °F - 34.0 °F 38% 29.54 in 10.0 mi SSW 13.8 mph - N/A   Clear
3:53 PM 61.0 °F - 34.0 °F 36% 29.53 in 10.0 mi SW 11.5 mph 19.6 mph N/A   Clear
4:53 PM 60.1 °F - 34.0 °F 38% 29.52 in 10.0 mi SW 10.4 mph - N/A   Partly Cloudy
5:53 PM 59.0 °F - 34.0 °F 39% 29.51 in 10.0 mi WSW 3.5 mph - N/A   Partly Cloudy
6:53 PM 57.9 °F - 35.1 °F 42% 29.51 in 10.0 mi SSW 8.1 mph - N/A   Partly Cloudy
7:53 PM 51.1 °F - 44.1 °F 77% 29.55 in 6.0 mi SSW 18.4 mph 36.8 mph 0.02 in Rain Rain
8:53 PM 51.1 °F - 42.1 °F 71% 29.55 in 10.0 mi South 12.7 mph - 0.01 in   Overcast
9:53 PM 50.0 °F - 41.0 °F 71% 29.57 in 10.0 mi SSW 9.2 mph - N/A   Overcast
10:53 PM 48.9 °F - 39.0 °F 69% 29.57 in 10.0 mi SSW 10.4 mph - N/A   Mostly Cloudy
11:53 PM 48.9 °F - 39.9 °F 71% 29.58 in 10.0 mi South 15.0 mph - N/A   Clear